Location: New Plymouth
(39.0670°S, 174.0830°E)
Time: 17:13:52
(UTC+13:00)

ISS - Pass Details

Date: 09 December 2023
Orbit: 414 x 422 km, 51.6° (Epoch: 26 February)

Event Time Altitude Azimuth Distance (km) Brightness Sun altitude
Rises 21:23:17 0° 352° (N) 2,431 -0.2 -7.7°
Reaches altitude 10° 21:26:08 10° 17° (NNE) 1,568 -1.3 -8.1°
Drops below altitude 10° 21:30:08 10° 86° (E) 1,574 -1.3 -8.7°
Maximum altitude 23:04:49 63° 216° (SW) 504 -3.2 -20.9°
Sets 23:10:29 0° 130° (SE) 2,444 0.2 -21.5°
